Weather History for PAFA - July, 2012

Change the Weather History Date:

Saturday, July 7, 2012

  Actual Average Record
Temperature  
Mean Temperature 66 °F 64 °F  
Max Temperature 76 °F 74 °F 91 °F (1923)
Min Temperature 55 °F 53 °F 37 °F (1924)
Degree Days  
Heating Degree Days 0 3  
Month to date heating degree days 17 21  
Since 1 June heating degree days 132 181  
Since 1 July heating degree days 17 21  
Cooling Degree Days 1 1  
Month to date cooling degree days 4 11  
Year to date cooling degree days 25 35  
Since 1 June cooling degree days 25 34  
Growing Degree Days 15 (Base 50)    
Moisture  
Dew Point 49 °F    
Average Humidity 55    
Maximum Humidity 80    
Minimum Humidity 28    
Precipitation  
Precipitation 0.07 in 0.06 in 1.19 in (1990)
Month to date precipitation 0.20 0.43  
Year to date precipitation 4.24 3.96  
Snow  
Snow 0.00 in 0.00 in 0.00 in (2002)
Month to date snowfall 0.0 0.0  
Since 1 June snowfall 0.0 0.0  
Since 1 July snowfall 0.0 0.0  
Snow Depth 0.00 in    
Sea Level Pressure  
Sea Level Pressure 29.78 in    
Wind  
Wind Speed 4 mph (East)    
Max Wind Speed 14 mph    
Max Gust Speed -    
Visibility 10 miles    
Events Rain    
T = Trace of Precipitation, MM = Missing Value Source: NWS Daily Summary

Daily Weather History Graph

Daily Weather History Graph

Search for Another Location

Airport or City:

Trip Planner

Search our weather history database for the weather conditions in past years. The results will help you decide how hot, cold, wet, or windy it might be!

Date:

Astronomy

Jul. 07, 2012 Rise Set
Actual Time 3:30 AM AKDT 12:20 AM AKDT
Civil Twilight Sun does not set Sun does not set
Nautical Twilight Sun does not set Sun does not set
Astronomical Twilight Sun does not set Sun does not set
Moon 11:53 PM AKDT (7/7) 10:43 AM AKDT (7/7)
Length of Visible Light 24h 00m
Length of Day
20h 50m
Waning Gibbous, 80% of the Moon is Illuminated
Jul 7
Waning Gibbous
Jul 10
Last Quarter
Jul 18
New
Jul 26
First Quarter
Aug 1
Full

Hourly Weather History & Observations

Time (AKDT) Temp. Dew Point Humidity Pressure Visibility Wind Dir Wind Speed Gust Speed Precip Events Conditions
12:53 AM 62.1 °F 50.0 °F 65% 29.83 in 10.0 mi ESE 3.5 mph - N/A   Mostly Cloudy
1:53 AM 59.0 °F 48.9 °F 69% 29.84 in 10.0 mi ENE 5.8 mph - N/A   Mostly Cloudy
2:53 AM 59.0 °F 48.9 °F 69% 29.84 in 10.0 mi ENE 4.6 mph - N/A   Mostly Cloudy
3:53 AM 57.0 °F 50.0 °F 77% 29.83 in 10.0 mi Calm Calm - N/A   Mostly Cloudy
4:53 AM 55.9 °F 48.9 °F 77% 29.84 in 10.0 mi NNW 4.6 mph - N/A   Mostly Cloudy
5:53 AM 55.9 °F 50.0 °F 80% 29.83 in 10.0 mi NNE 4.6 mph - N/A   Mostly Cloudy
6:53 AM 60.1 °F 51.1 °F 72% 29.82 in 10.0 mi North 3.5 mph - N/A   Mostly Cloudy
7:53 AM 62.1 °F 50.0 °F 65% 29.81 in 10.0 mi Calm Calm - N/A   Mostly Cloudy
8:53 AM 64.0 °F 50.0 °F 60% 29.81 in 10.0 mi Calm Calm - N/A   Mostly Cloudy
9:53 AM 66.9 °F 50.0 °F 54% 29.79 in 10.0 mi Calm Calm - N/A   Scattered Clouds
10:53 AM 68.0 °F 50.0 °F 52% 29.79 in 10.0 mi SSE 5.8 mph - N/A   Scattered Clouds
11:53 AM 71.1 °F 46.9 °F 42% 29.78 in 10.0 mi ESE 8.1 mph - N/A   Scattered Clouds
12:53 PM 72.0 °F 48.9 °F 44% 29.78 in 10.0 mi ESE 4.6 mph - N/A   Mostly Cloudy
1:53 PM 73.0 °F 46.9 °F 39% 29.76 in 10.0 mi South 4.6 mph - N/A   Mostly Cloudy
2:53 PM 75.0 °F 45.0 °F 34% 29.75 in 10.0 mi Calm Calm - N/A   Mostly Cloudy
3:53 PM 72.0 °F 46.0 °F 40% 29.74 in 10.0 mi NE 13.8 mph - 0.00 in Rain Light Rain
4:53 PM 75.0 °F 46.9 °F 37% 29.73 in 10.0 mi Calm Calm - 0.02 in   Mostly Cloudy
5:53 PM 71.1 °F 46.0 °F 41% 29.72 in 10.0 mi WNW 4.6 mph - 0.00 in   Mostly Cloudy
6:53 PM 73.0 °F 48.0 °F 41% 29.71 in 10.0 mi NNW 4.6 mph - N/A   Mostly Cloudy
7:53 PM 73.0 °F 48.9 °F 42% 29.70 in 10.0 mi ESE 3.5 mph - N/A   Mostly Cloudy
8:53 PM 71.1 °F 54.0 °F 55% 29.71 in 10.0 mi Calm Calm - N/A   Mostly Cloudy
9:53 PM 68.0 °F 55.0 °F 63% 29.71 in 10.0 mi SE 3.5 mph - N/A   Mostly Cloudy
10:53 PM 66.0 °F 48.0 °F 52% 29.74 in 10.0 mi South 6.9 mph - N/A   Mostly Cloudy
11:53 PM 60.1 °F 54.0 °F 80% 29.78 in 10.0 mi South 4.6 mph - N/A Rain Light Rain